Clemson, SC

11:26 PM EST on January 19, 2018 (GMT -0500)
Oconee County Regional

Weather History for KCEU - March, 2014

Change the Weather History Date:

Thursday, March 20, 2014

  Actual Average Record
Temperature  
Mean Temperature 59 °F -  
Max Temperature 73 °F 66 °F 86 °F (1935)
Min Temperature 46 °F 40 °F 26 °F (1947)
Degree Days  
Heating Degree Days 6    
Growing Degree Days 9 (Base 50)    
Moisture  
Dew Point 30 °F    
Average Humidity 44    
Maximum Humidity 83    
Minimum Humidity 10    
Precipitation  
Precipitation 0.00 in - - ()
Sea Level Pressure  
Sea Level Pressure 30.02 in    
Wind  
Wind Speed 9 mph (West)    
Max Wind Speed 13 mph    
Max Gust Speed 20 mph    
Visibility 10 miles    
Events      
Averages and records for this station are not official NWS values.
T = Trace of Precipitation, MM = Missing Value Source: NWS Daily Summary

Daily Weather History Graph

Daily Weather History Graph

Search for Another Location

Airport or City:

Trip Planner

Search our weather history database for the weather conditions in past years. The results will help you decide how hot, cold, wet, or windy it might be!

Date:

Astronomy

Mar. 20, 2014 Rise Set
Actual Time 7:35 AM EDT 7:43 PM EDT
Civil Twilight 7:10 AM EDT 8:08 PM EDT
Nautical Twilight 6:40 AM EDT 8:37 PM EDT
Astronomical Twilight 6:11 AM EDT 9:07 PM EDT
Moon 11:51 PM EDT 9:50 AM EDT
Length of Visible Light 12h 58m
Length of Day
12h 08m
Waning Gibbous, 84% of the Moon is Illuminated
Mar 20
Waning Gibbous
Mar 23
Last Quarter
Mar 30
New
Apr 7
First Quarter
Apr 15
Full

Hourly Weather History & Observations

Time (EDT) Temp. Dew Point Humidity Pressure Visibility Wind Dir Wind Speed Gust Speed Precip Events Conditions
12:54 AM 50.0 °F 44.1 °F 80% 30.04 in 8.0 mi WSW 10.4 mph - N/A   Clear
1:54 AM 48.9 °F 44.1 °F 83% 30.04 in 9.0 mi WSW 12.7 mph - N/A   Clear
2:54 AM 50.0 °F 44.1 °F 80% 30.02 in 9.0 mi WSW 10.4 mph - N/A   Clear
3:54 AM 50.0 °F 44.1 °F 80% 30.00 in 9.0 mi WSW 10.4 mph - N/A   Clear
4:54 AM 51.1 °F 44.1 °F 77% 30.00 in 9.0 mi WSW 9.2 mph - N/A   Clear
5:54 AM 50.0 °F 43.0 °F 77% 30.00 in 10.0 mi West 10.4 mph - N/A   Clear
6:54 AM 46.9 °F 42.1 °F 83% 30.02 in 10.0 mi West 6.9 mph - N/A   Clear
7:54 AM 46.9 °F 42.1 °F 83% 30.03 in 10.0 mi NE 4.6 mph - N/A   Clear
8:54 AM 53.1 °F 42.1 °F 66% 30.04 in 10.0 mi West 8.1 mph - N/A   Clear
9:54 AM 57.9 °F 37.9 °F 47% 30.05 in 10.0 mi West 5.8 mph - N/A   Clear
10:54 AM 61.0 °F 32.0 °F 34% 30.06 in 10.0 mi Variable 4.6 mph - N/A   Clear
11:54 AM 64.0 °F 30.9 °F 29% 30.06 in 10.0 mi Variable 4.6 mph - N/A   Clear
12:54 PM 66.0 °F 30.0 °F 26% 30.04 in 10.0 mi West 12.7 mph 17.3 mph N/A   Clear
1:54 PM 68.0 °F 26.1 °F 21% 30.01 in 10.0 mi Variable 5.8 mph - N/A   Clear
2:54 PM 71.1 °F 25.0 °F 18% 29.97 in 10.0 mi Variable 5.8 mph - N/A   Clear
3:54 PM 72.0 °F 14.0 °F 11% 29.96 in 10.0 mi WSW 10.4 mph - N/A   Clear
4:54 PM 72.0 °F 12.9 °F 10% 29.95 in 10.0 mi WSW 10.4 mph 19.6 mph N/A   Clear
5:54 PM 72.0 °F 15.1 °F 11% 29.95 in 10.0 mi West 9.2 mph 18.4 mph N/A   Clear
6:54 PM 68.0 °F 15.1 °F 13% 29.97 in 10.0 mi WSW 12.7 mph - N/A   Clear
7:54 PM 62.1 °F 19.9 °F 20% 30.00 in 10.0 mi West 9.2 mph - N/A   Clear
8:54 PM 59.0 °F 19.9 °F 22% 30.01 in 10.0 mi WSW 10.4 mph - N/A   Clear
9:54 PM 55.9 °F 19.9 °F 25% 30.03 in 10.0 mi West 10.4 mph - N/A   Clear
10:54 PM 55.0 °F 19.9 °F 25% 30.05 in 10.0 mi Calm Calm - N/A   Clear
11:54 PM 54.0 °F 19.9 °F 26% 30.07 in 10.0 mi NW 3.5 mph - N/A   Clear